Simultaneous Nadir Overpasses (SNOs) Predictions

Prediction of SNOs between AQUA and METOP-B Satellite Orbit:

Table of predicted SNOs for the next 14.0 days since TLE Epoch: 12/29/2017
Index Date (AQUA) Time (AQUA) Lat,Lon (AQUA) SZA (AQUA ) Date (METOP-B) Time (METOP-B) Lat,Lon (METOP-B) SZA (METOP-B ) Distance(km) Time Diff (sec)
1 12/29/2017 22:43:49 74.61,-168.53 97.84 12/29/2017 22:44:53 74.58,-165.19 97.71 98.74 64
2 01/01/2018 16:38:56 73.77, -75.40 96.74 01/01/2018 16:38:10 73.79, -75.44 96.77 3.01 46
3 01/01/2018 17:28:23 -73.85, 92.05 83.18 01/01/2018 17:28:51 -73.85, 92.03 83.18 0.51 28
4 01/04/2018 12:13:13 73.80, -9.04 96.51 01/04/2018 12:12:32 73.82, -8.97 96.53 2.83 41
5 01/04/2018 13:02:40 -73.89, 158.41 83.41 01/04/2018 13:03:13 -73.88, 158.51 83.42 2.92 33
6 01/07/2018 07:47:29 73.79, 57.43 96.18 01/07/2018 07:46:55 73.79, 57.37 96.19 1.66 34
7 01/07/2018 08:36:56 -73.87,-135.12 83.74 01/07/2018 08:37:36 -73.86,-135.14 83.76 1.93 40
8 01/10/2018 03:21:44 73.79, 123.87 95.80 01/10/2018 03:21:16 73.81, 123.83 95.83 3.16 28
9 01/10/2018 04:11:11 -73.87, -68.67 84.12 01/10/2018 04:11:57 -73.88, -68.68 84.12 1.37 46




NCC Satellite Simultaneous Nadir Overpasses (SNOs) Prediction Service
